A/2019 K6

Japanese version
Home page
Updated on August 23, 2019

---------------------------------------------------------------------

* Profile

Discovery Date May 31, 2019
Magnitude 21.1 mag
Discoverer Pan-STARRS 2 telescope (Haleakala)

* Pictures

* Orbital Elements

Epoch 2020 May 31.0 TT = JDT 2459000.5                                          
T 2020 May 20.17874 TT                                  Williams                
q   3.9286176            (2000.0)            P               Q                  
z  +0.0006672      Peri.  187.61653     -0.78646194     -0.35804172             
 +/-0.0000123      Node    42.93999     -0.52055623     +0.82279077             
e   0.9973788      Incl.  132.37335     -0.33241363     -0.44138585             
H   13.6                                                                        
From 167 observations 2019 May 7-Aug. 21, mean residual 0".3.                   

* Magnitudes Graph

        H = 13.0  G = 0.15

---------------------------------------------------------------------

The orbital elements are published on M.P.E.C. 2019-Q33.
The magnitudes graphs are made with Comet for Windows.

---------------------------------------------------------------------

Copyright(C) Seiichi Yoshida (comet@aerith.net). All rights reserved.